Wind_Speed
20 20 21 21 22 22 23 24 24 25 26 27 27 28 29 30 31 32 33 34 35 36 37 37 38 39 40 41 43 44 45 47 48 49 49 50 51 51 52 52 53 53 52 52 51 49 48 46 44 42 41 39 38 38 38 38 39 40 40 41 41 41 41 41 41 41 41 41 41 40 40 40 40 39 39 38 38 38 38 38 38 38 39 39 38 37
20 21 21 22 22 23 23 24 24 25 26 27 27 28 29 30 31 32 33 34 35 36 37 38 39 40 41 42 43 44 46 47 48 49 50 50 51 51 52 52 52 52 51 51 50 48 47 46 44 42 41 39 38 38 38 39 40 40 41 41 41 42 42 42 42 42 42 42 42 42 42 41 41 41 40 39 39 38 37 37 37 38 38 38 38 37
20 21 22 22 23 23 24 24 25 25 26 27 28 28 29 30 31 32 33 34 35 37 37 38 39 40 41 42 43 45 46 47 48 49 49 50 50 51 51 51 51 51 50 49 48 47 46 45 43 42 40 39 39 38 39 39 40 41 41 41 42 42 42 42 42 43 43 43 43 43 43 43 42 42 42 41 40 39 38 37 37 37 37 37 37 36
20 21 22 22 23 23 24 25 25 26 26 27 28 29 29 30 31 32 33 34 35 36 38 39 39 40 41 42 44 45 46 47 48 49 49 50 50 50 50 50 50 49 49 48 47 46 45 44 42 41 40 39 39 39 39 40 41 41 41 42 42 42 42 43 43 43 44 44 44 44 44 44 44 43 43 42 41 40 39 38 37 37 37 37 36 35
21 21 22 22 23 24 24 25 26 26 27 28 28 29 30 31 31 32 33 34 35 36 37 38 40 41 42 43 44 45 46 47 48 49 49 50 50 50 49 49 48 48 47 46 45 44 43 42 41 41 40 39 39 40 40 41 41 41 42 42 42 43 43 43 44 44 45 45 45 45 45 45 45 44 44 43 42 41 40 39 38 37 37 36 36 35
21 22 22 23 23 24 25 25 26 26 27 28 29 29 30 31 32 32 33 34 35 36 37 38 40 41 42 43 44 45 46 47 48 48 49 49 49 49 48 47 46 46 45 44 43 42 42 41 40 40 40 40 40 40 41 41 42 42 42 42 43 43 43 44 44 45 45 46 46 46 46 46 46 46 45 44 43 42 41 40 38 37 37 36 35 35
21 22 23 23 24 24 25 25 26 27 27 28 28 29 30 31 32 33 33 34 35 36 37 38 39 41 42 44 45 45 46 47 47 48 48 49 48 48 47 46 44 44 43 42 41 41 40 40 40 40 40 40 40 41 41 42 42 42 43 43 43 44 44 45 45 46 46 47 47 47 47 47 47 47 46 45 44 43 42 41 40 38 37 36 35 34
22 22 23 23 24 25 25 26 26 27 27 28 28 29 30 30 31 32 33 34 35 36 36 38 39 41 42 43 44 45 46 46 47 48 48 48 48 47 45 44 42 41 40 40 39 39 38 39 39 39 39 40 40 41 41 42 42 43 43 44 44 45 45 46 46 47 47 47 48 48 48 48 47 47 47 46 45 44 43 42 41 39 37 36 35 34
22 22 23 24 24 25 25 26 27 27 28 29 29 29 30 30 31 32 33 34 35 36 37 38 39 41 42 43 44 45 45 46 46 47 48 48 47 45 43 42 40 39 38 37 37 37 37 37 38 38 39 40 40 41 41 42 43 43 44 44 45 46 46 47 48 48 48 48 48 48 48 48 47 47 47 46 46 45 44 43 41 40 38 36 35 34
22 22 23 24 24 25 26 26 27 28 28 29 30 30 31 31 31 32 32 33 34 36 37 38 40 41 42 43 43 44 44 45 45 46 47 47 46 44 42 40 39 37 36 36 35 36 36 36 37 38 39 39 40 41 42 42 43 44 44 45 46 47 48 49 49 49 49 49 49 48 48 47 47 46 46 45 45 45 44 43 42 40 38 36 35 34
22 23 23 24 25 25 26 27 27 28 29 30 30 31 32 32 33 33 33 33 34 35 37 39 40 42 43 44 44 44 43 43 44 45 45 45 44 42 40 38 36 35 35 34 34 35 35 36 37 38 39 40 40 41 42 43 44 45 46 47 48 48 49 50 50 50 49 49 48 48 47 46 45 45 44 44 44 43 43 42 41 40 38 37 35 34
22 23 24 24 25 26 27 27 28 28 29 30 30 31 32 33 34 34 34 35 35 36 37 39 41 43 44 44 45 44 44 43 43 43 44 44 43 40 37 35 34 33 33 33 33 34 35 36 37 38 39 40 41 42 43 44 45 46 47 48 49 49 50 50 49 49 48 48 47 46 45 44 43 43 42 42 42 42 41 41 40 39 38 37 35 34
23 23 24 25 25 26 27 27 28 29 29 30 31 31 32 33 34 34 35 35 36 37 38 39 41 43 45 45 46 45 45 44 44 43 42 42 41 39 36 34 32 32 32 33 33 34 35 36 38 39 40 41 42 43 44 46 46 47 48 49 49 49 49 48 48 47 46 45 45 44 43 42 42 41 41 40 40 40 40 40 39 38 37 36 35 33
23 24 24 25 26 26 27 27 28 29 30 31 31 32 33 34 34 35 35 36 37 38 39 40 41 43 45 46 47 47 46 45 44 43 41 40 39 38 35 33 31 31 31 32 34 35 36 37 38 40 41 42 44 45 46 47 48 48 48 48 48 48 47 46 45 45 44 43 43 42 42 41 41 40 40 39 39 38 38 38 38 38 37 35 34 33
23 24 25 25 26 26 27 28 28 29 30 31 32 33 33 34 35 35 36 36 37 39 40 41 42 43 44 46 47 48 48 47 45 42 40 39 38 36 34 32 31 30 31 32 34 35 36 38 39 41 42 44 45 46 47 48 48 48 48 47 47 46 45 44 43 43 42 42 42 41 41 41 41 40 40 39 38 37 37 37 37 37 36 35 33 32
24 24 25 25 26 27 27 28 29 30 31 32 32 33 34 34 35 36 36 37 38 39 41 42 43 44 45 46 48 48 48 47 45 42 39 37 36 35 33 32 31 31 32 33 34 36 37 39 41 42 44 45 46 47 48 48 48 48 47 46 45 44 43 42 42 41 41 41 42 42 42 42 41 41 40 39 38 37 36 35 35 35 35 34 32 31
24 25 25 26 26 27 27 28 29 30 31 32 33 34 34 35 35 36 37 38 39 40 42 43 44 45 46 47 48 49 49 47 45 42 38 35 35 35 33 32 31 32 33 34 36 37 39 41 43 44 46 47 48 48 48 48 47 46 45 44 43 42 42 41 41 42 42 42 42 43 43 42 42 41 41 39 38 36 35 34 34 34 33 32 31 29
24 25 25 26 26 27 28 29 29 30 31 32 33 34 34 35 36 36 37 39 40 41 43 44 46 47 48 48 49 49 49 47 45 41 37 35 34 34 33 32 32 33 34 36 38 40 41 43 45 46 47 48 49 49 48 48 47 46 45 43 43 42 42 42 42 43 43 43 43 43 43 43 43 42 41 40 38 36 35 34 33 33 32 31 29 28
24 25 25 26 26 27 28 29 30 31 31 32 33 33 34 35 36 37 38 39 40 42 43 45 46 47 48 48 49 49 49 47 44 41 37 35 34 35 35 34 34 35 36 38 40 42 44 46 47 48 49 49 49 49 48 48 47 46 45 44 44 43 43 43 44 44 44 44 44 44 44 43 43 42 41 40 38 36 35 33 32 32 31 29 28 27
24 25 25 26 26 27 28 29 30 31 32 32 33 33 34 34 35 36 38 39 41 42 43 45 46 47 48 48 49 49 48 47 44 41 38 35 35 36 36 36 37 38 39 41 43 44 46 48 49 49 49 50 49 49 49 48 47 47 46 45 45 45 45 44 45 45 45 44 44 44 44 43 43 42 41 40 39 37 35 33 32 31 30 28 27 25
24 25 25 26 27 27 28 29 30 31 32 33 33 33 34 34 35 36 38 39 40 42 43 44 45 46 47 48 48 48 48 46 43 41 39 37 36 37 38 38 39 40 41 43 45 46 48 49 50 50 50 50 50 49 49 48 48 47 47 46 46 45 45 45 45 45 45 44 44 44 43 43 42 42 41 40 38 36 34 32 31 30 29 27 26 24
24 25 26 26 27 28 29 30 31 31 32 33 33 34 34 35 36 37 38 39 41 42 43 44 45 46 46 47 47 47 47 45 43 41 40 38 38 38 39 40 41 42 44 45 47 48 49 49 50 50 50 50 50 50 49 49 48 47 47 46 46 46 45 45 45 45 45 45 44 43 43 42 42 41 41 40 38 36 34 32 30 29 28 27 25 24
25 25 26 26 27 28 29 30 31 31 32 33 33 34 35 36 37 38 39 40 41 42 44 44 45 45 46 46 47 47 46 44 43 41 40 39 39 40 41 42 43 44 46 47 48 49 49 50 50 50 50 50 50 50 50 49 48 47 47 46 46 46 46 45 45 45 45 44 44 43 43 42 41 41 40 39 37 35 33 31 29 28 27 26 24 23
25 25 26 27 27 28 29 30 30 31 32 33 33 34 35 36 37 39 40 41 42 43 44 45 45 45 45 45 45 45 44 43 41 40 40 39 40 41 42 44 45 47 48 48 49 50 50 49 49 49 50 50 50 50 49 48 48 47 46 46 46 46 46 46 45 45 45 44 43 43 42 41 41 40 39 38 36 35 33 31 29 27 26 25 24 23
25 26 26 27 28 28 29 30 30 31 32 33 33 34 35 37 38 39 41 42 43 44 45 46 45 45 45 44 44 43 43 41 40 39 39 40 41 42 44 46 47 49 49 50 50 50 50 49 49 49 50 50 50 50 49 48 47 47 46 46 46 46 46 46 45 45 44 44 43 42 41 40 40 39 38 37 35 34 32 30 28 27 26 25 24 23
25 26 26 27 28 28 29 30 30 31 32 33 33 34 35 37 38 40 41 42 44 45 45 46 45 45 44 43 42 42 42 40 39 39 40 41 42 44 46 47 49 50 50 50 50 50 50 49 49 49 49 50 50 49 48 48 47 47 47 47 47 46 46 46 45 44 44 43 42 41 40 40 39 38 37 35 34 32 31 29 28 26 25 24 23 23
25 26 27 27 28 28 29 30 30 31 32 33 34 35 36 37 38 40 41 43 44 45 45 46 46 45 44 43 42 41 41 40 40 40 41 42 44 45 47 49 50 51 51 51 50 50 49 49 50 50 49 49 49 49 48 48 47 47 47 47 47 46 46 45 44 44 43 42 42 41 40 39 37 36 35 34 32 31 30 28 27 26 25 24 23 22
25 26 27 27 28 28 29 30 30 31 32 33 34 36 37 38 39 40 41 43 44 45 45 46 46 45 44 42 41 40 40 40 41 41 42 43 44 46 48 49 50 51 52 51 50 49 49 49 49 50 50 49 49 49 48 48 48 47 47 47 46 46 45 44 44 43 42 42 41 40 39 37 36 35 34 32 31 30 28 27 26 25 24 23 22 22
26 26 27 27 28 28 29 30 30 31 32 34 35 36 38 39 40 41 42 43 44 45 45 45 46 45 44 42 40 40 40 40 41 42 43 44 45 47 48 50 51 51 52 52 51 50 48 48 49 49 50 50 49 49 49 48 48 47 47 46 46 45 44 43 43 42 42 41 40 39 37 36 35 34 32 31 30 28 27 26 25 25 24 23 22 21
26 27 27 28 28 28 29 30 30 31 32 34 35 36 38 39 40 41 42 43 44 45 45 45 45 44 43 42 41 40 40 40 41 42 43 45 46 47 49 50 51 51 52 52 52 51 50 49 49 49 49 49 50 49 49 48 48 47 46 45 45 44 43 42 42 41 40 39 38 37 36 34 33 32 31 30 28 27 26 25 25 24 23 22 21 21
26 27 27 28 28 28 29 29 30 31 33 34 35 36 38 39 40 41 42 43 44 45 45 44 44 43 42 41 40 40 40 41 42 43 44 45 47 48 49 50 50 51 51 51 52 52 52 52 50 49 49 49 49 49 49 48 47 46 45 44 43 42 42 41 40 40 39 38 37 36 34 33 32 31 30 28 26 25 24 24 24 23 23 22 21 20
26 27 27 27 28 28 28 29 30 31 32 34 35 36 37 39 40 41 42 43 44 44 44 44 43 42 41 40 39 40 40 41 42 44 45 46 47 48 49 49 50 50 50 50 51 51 52 52 52 51 50 49 49 49 48 47 46 45 44 43 42 41 40 39 39 38 37 37 36 35 34 33 31 30 28 26 25 23 23 23 23 23 22 22 21 20
26 27 27 27 27 27 28 29 30 31 33 34 35 36 38 39 40 42 43 44 44 44 44 43 42 41 39 38 38 38 39 41 43 44 46 47 47 48 48 48 49 49 49 50 50 51 51 52 52 51 50 49 48 48 47 46 45 43 42 41 40 40 39 38 37 36 36 36 35 34 33 32 30 29 27 25 23 22 22 22 22 22 22 22 21 20
26 27 27 27 27 27 28 29 30 32 33 34 35 37 38 39 40 42 43 44 44 43 43 42 41 40 39 38 37 38 39 40 42 44 46 46 47 47 47 48 48 49 49 50 50 51 51 51 51 50 50 49 48 47 45 44 43 42 40 39 38 38 37 37 36 36 35 36 35 34 33 32 30 27 25 24 22 21 21 21 22 22 22 22 21 21
26 26 26 26 26 26 27 29 30 32 33 35 36 37 38 39 41 42 43 43 43 42 41 40 39 39 38 38 38 38 39 40 42 44 45 46 46 47 47 47 48 49 50 50 51 51 51 50 50 49 49 49 48 46 44 42 40 39 38 37 36 36 35 35 35 35 35 35 35 34 33 31 29 27 24 23 22 21 21 21 21 22 22 22 22 21
26 26 26 25 25 25 27 28 30 32 33 35 36 37 38 39 40 41 42 42 41 40 39 38 38 37 37 37 38 38 39 41 42 43 44 45 46 46 46 47 48 49 50 51 51 51 50 50 49 48 48 47 46 45 43 41 38 37 36 35 35 35 35 35 35 35 35 35 35 34 33 31 29 26 24 22 21 21 21 21 21 21 22 22 22 21
26 26 25 24 24 24 26 28 30 31 33 34 36 37 38 39 40 41 41 40 39 38 37 36 36 36 37 37 38 39 40 41 42 43 44 45 45 45 46 47 48 49 50 50 51 50 50 49 49 48 47 46 45 43 42 39 37 35 34 34 34 34 34 35 35 35 35 34 34 33 33 31 28 26 24 22 21 20 20 21 21 21 21 22 21 20
25 25 24 23 23 24 25 27 29 31 33 34 35 37 38 39 39 40 39 39 37 36 35 34 35 35 36 37 38 39 40 42 42 43 44 44 44 45 46 47 48 49 49 49 49 49 49 49 48 47 47 45 44 42 40 38 36 34 33 33 33 33 34 34 35 35 35 34 33 33 32 31 29 26 24 22 21 21 21 21 21 21 21 21 20 19
24 24 23 23 23 24 26 28 29 31 33 34 35 37 38 38 39 39 38 37 36 35 34 33 33 34 35 37 38 39 41 42 42 43 43 43 44 45 46 47 48 49 49 49 48 48 48 48 47 46 45 44 43 41 39 37 35 33 33 33 33 33 34 34 35 35 34 34 33 32 32 30 29 26 24 23 22 22 21 22 22 21 21 20 19 18
24 24 23 24 25 26 27 28 29 31 33 34 36 37 37 38 38 38 37 36 35 34 33 32 32 33 34 36 38 39 40 41 42 42 42 43 43 44 46 47 47 48 48 48 47 47 47 47 46 45 44 43 41 39 37 36 35 34 33 33 33 33 34 34 34 34 34 33 32 32 31 30 28 27 25 24 23 23 23 23 23 22 21 20 18 16
24 24 24 25 26 26 27 27 29 31 33 34 36 36 37 37 37 36 36 35 34 33 31 31 31 32 33 35 36 38 39 41 41 41 42 42 43 44 45 46 47 47 47 46 46 46 46 45 45 45 44 42 40 38 36 35 34 34 34 33 33 33 33 34 34 33 33 32 32 31 31 30 28 26 25 24 24 24 23 23 23 23 22 20 18 16
24 24 24 25 26 26 26 26 28 30 33 34 35 36 37 37 37 36 35 34 33 32 31 30 30 31 33 34 36 37 39 40 40 41 41 42 43 44 45 45 45 45 46 45 45 45 45 44 44 43 43 41 40 38 36 34 34 33 33 33 33 33 33 32 32 32 32 31 31 30 30 29 28 26 25 24 24 24 24 24 23 23 21 20 18 17
24 24 25 26 26 25 25 26 28 30 32 34 35 36 37 37 37 36 35 34 32 31 31 30 31 32 33 34 36 37 38 39 40 40 41 42 43 44 44 44 44 44 44 44 45 45 45 44 43 42 42 41 39 37 35 34 33 33 33 33 34 33 33 32 32 31 31 30 30 29 29 28 27 26 24 24 24 23 23 24 23 22 21 19 18 17
25 25 25 25 25 24 23 25 28 30 32 34 35 36 36 37 36 36 35 33 32 31 31 31 32 33 34 35 36 37 38 39 39 40 41 42 43 43 43 43 43 43 44 44 44 44 44 44 43 42 41 40 39 37 36 34 33 32 32 32 32 32 32 32 31 31 30 29 29 28 28 27 26 25 24 23 23 23 23 23 23 22 21 19 18 17
26 26 26 25 23 22 23 25 28 30 32 34 35 35 36 36 36 35 34 33 32 31 31 32 33 34 35 36 37 37 38 38 39 40 41 42 42 42 42 41 42 43 43 44 43 43 43 43 43 42 41 40 38 37 35 34 32 31 30 30 30 30 30 31 31 30 30 29 28 28 27 26 25 24 23 23 23 24 24 23 23 22 20 19 18 17
28 27 26 24 22 21 23 25 28 30 32 33 34 35 35 35 35 34 33 32 31 31 32 33 34 35 36 37 38 38 38 38 39 40 41 41 41 41 41 41 41 42 43 43 43 43 42 42 42 41 40 39 38 37 35 33 31 29 29 29 28 28 29 29 30 30 29 29 28 28 27 26 24 23 23 23 24 24 24 24 23 22 20 19 19 18
29 27 25 22 21 21 23 25 28 30 32 33 34 34 35 34 34 33 32 31 31 31 32 33 34 35 37 38 38 38 39 39 40 41 41 41 41 40 40 40 41 41 42 43 43 43 42 42 42 41 40 39 38 36 34 32 30 28 27 27 27 27 28 28 29 29 29 29 29 28 28 26 25 24 24 24 25 25 24 23 22 21 21 20 19 18
29 26 23 20 20 21 23 25 28 29 31 32 33 34 34 33 33 32 31 31 31 31 32 33 34 35 36 37 38 38 39 39 40 41 41 41 40 40 39 39 40 41 42 42 42 42 42 42 41 41 40 39 37 35 33 30 28 27 26 26 26 26 27 27 28 28 29 29 29 29 29 28 27 26 25 25 25 25 24 23 22 21 21 20 20 19
26 23 20 19 19 21 24 26 27 29 31 31 32 32 32 32 32 31 30 30 30 31 32 33 34 36 36 37 37 38 39 39 40 41 40 40 40 39 39 39 39 40 40 41 42 42 42 42 41 40 40 39 37 35 32 29 27 25 25 25 25 26 26 27 27 28 28 29 29 29 29 28 27 26 26 25 25 24 24 23 22 21 21 21 20 20
23 20 18 18 19 22 24 26 28 29 30 31 31 31 31 31 30 30 29 30 30 31 32 34 35 36 36 37 37 38 39 40 40 40 40 40 39 39 39 39 39 39 39 40 41 42 42 42 42 41 39 38 36 34 31 28 25 24 24 24 25 25 25 26 26 27 28 29 29 29 29 28 28 27 26 25 24 23 23 22 22 22 22 21 21 21
21 18 17 18 20 22 24 26 28 29 30 31 31 31 30 29 29 29 29 29 30 31 32 34 35 36 36 37 37 38 39 39 40 40 39 39 39 39 39 39 39 39 39 39 40 40 41 41 41 41 40 38 36 33 30 27 25 24 24 24 24 25 25 25 26 27 27 28 29 29 29 29 28 27 26 24 23 23 22 22 22 22 22 22 22 21
Wind_Direction
311 312 312 312 312 312 312 313 314 314 315 316 316 316 317 318 319 321 322 323 324 325 325 326 327 328 329 329 329 329 329 329 329 330 330 331 332 332 333 332 332 332 332 332 332 332 333 333 334 334 334 333 332 331 330 330 329 329 329 329 329 328 328 328 327 327 327 328 328 328 328 328 327 327 326 325 324 323 321 320 318 316 315 313 312 312
312 311 311 311 312 312 312 313 314 315 315 316 316 317 318 319 321 322 323 324 325 326 327 328 329 329 329 330 330 330 330 330 330 330 331 332 333 333 333 333 332 332 332 332 332 333 333 333 333 333 333 333 332 331 330 330 329 329 329 328 328 327 327 326 326 326 327 327 327 327 327 327 326 326 325 324 324 323 322 320 318 316 314 312 311 310
311 311 311 311 311 312 313 313 314 315 315 316 317 318 319 321 322 323 324 325 326 327 328 328 329 329 329 330 330 330 330 330 331 331 332 333 333 333 333 333 333 332 332 333 333 333 333 333 333 333 333 332 331 331 330 330 329 329 328 327 327 326 325 325 325 325 326 326 326 326 326 326 325 325 324 323 323 322 321 320 317 315 312 311 310 309
310 310 310 311 311 312 313 314 315 315 316 317 318 319 320 322 323 324 325 326 327 328 328 329 329 329 329 329 330 330 331 331 331 332 333 333 333 334 333 333 333 333 333 333 333 333 333 333 333 333 332 332 331 330 330 329 328 328 327 326 325 325 324 324 324 324 325 325 325 325 325 324 324 323 323 322 322 321 320 319 317 314 312 310 309 308
309 309 310 311 312 313 313 314 315 316 317 318 319 320 322 323 324 325 326 327 328 329 329 329 329 329 329 330 330 331 331 332 332 333 333 333 334 334 334 333 333 333 333 333 333 333 333 332 332 332 332 331 331 330 329 329 328 327 326 325 324 324 323 323 323 323 324 324 323 323 323 323 323 322 322 321 320 320 319 318 316 313 311 309 308 307
309 310 310 311 312 313 314 315 316 317 318 319 320 321 322 324 325 326 327 328 328 329 329 329 329 329 329 330 331 332 332 333 333 333 333 334 334 334 334 334 334 334 334 334 333 333 332 332 332 331 331 331 330 329 329 327 326 325 325 324 323 323 323 323 323 323 323 323 322 322 322 322 321 321 320 320 319 318 318 316 315 312 310 308 306 305
310 310 312 312 313 314 315 316 317 318 319 320 320 322 323 324 326 327 328 328 328 328 329 329 329 329 330 331 332 333 333 333 333 333 333 334 334 334 335 335 335 335 334 334 333 333 332 331 331 331 330 330 329 328 327 326 325 325 324 323 323 323 322 322 322 322 322 322 322 321 321 321 320 319 319 318 318 317 316 315 314 312 309 307 305 304
310 311 312 313 314 315 316 317 317 318 319 320 321 322 323 325 326 327 328 328 328 328 329 329 329 330 330 331 332 333 334 334 334 334 334 334 334 335 336 336 336 335 335 334 333 332 331 331 330 330 329 329 328 327 326 325 325 324 324 323 323 323 323 322 322 322 322 322 321 321 320 320 319 318 318 317 316 316 315 314 313 311 309 307 305 304
311 312 313 314 315 316 317 317 318 318 319 320 321 323 324 325 326 327 327 328 328 328 328 329 329 330 331 332 333 334 334 335 334 334 334 334 335 336 337 337 337 336 335 334 333 331 331 330 329 329 328 327 327 326 325 325 324 324 324 324 323 323 323 323 323 323 322 322 321 321 320 319 319 318 317 316 315 315 314 313 312 311 309 306 304 303
313 313 314 315 316 317 317 318 318 319 320 321 322 324 325 326 326 327 327 327 328 328 329 329 330 330 331 332 333 334 335 335 335 335 335 335 336 337 338 338 338 336 335 333 332 331 330 329 328 328 327 327 326 325 325 325 325 324 324 324 324 324 324 324 324 323 323 322 322 321 320 320 319 318 316 315 314 314 313 313 312 311 309 306 304 302
314 315 315 316 317 317 318 318 319 320 321 322 324 325 325 326 327 327 327 328 328 329 329 330 330 331 331 332 333 334 336 337 337 336 336 336 337 338 339 339 338 336 334 333 331 330 329 328 328 327 327 326 326 326 325 325 325 325 325 325 325 325 325 325 324 324 323 323 323 322 322 321 320 319 317 315 314 313 313 312 312 311 309 307 304 302
315 316 316 317 317 318 318 318 319 321 322 323 324 325 326 326 327 327 328 328 329 330 331 331 332 331 331 332 333 335 336 338 338 338 338 337 338 339 339 339 338 336 334 332 331 330 329 329 328 328 327 327 327 326 326 326 326 326 326 326 326 326 325 325 325 324 324 324 324 324 323 323 322 320 318 317 315 314 313 313 312 311 310 307 305 303
316 317 317 318 318 318 318 319 320 321 323 324 325 325 326 326 327 328 328 329 330 331 332 333 333 332 332 332 333 335 337 339 340 340 339 338 338 339 339 339 338 336 334 332 331 331 330 330 329 329 328 328 327 327 327 327 327 327 327 327 326 326 326 326 325 325 326 326 326 326 326 325 324 322 320 319 317 315 314 314 313 312 311 309 306 304
317 317 317 318 318 318 319 320 321 322 323 324 325 326 326 327 327 328 329 329 330 331 332 333 334 333 332 332 333 335 338 340 342 342 341 339 338 339 339 339 338 336 335 333 332 332 331 331 330 329 329 328 328 328 328 328 328 328 328 327 327 327 327 327 327 327 328 328 328 328 328 327 326 325 323 321 320 318 317 316 315 314 313 311 308 305
317 317 317 317 318 318 319 320 322 323 324 325 326 326 326 327 327 328 329 330 331 331 332 333 333 334 333 333 334 336 338 340 343 344 343 340 338 338 339 339 339 337 336 334 334 333 332 331 331 330 329 329 329 329 329 329 329 329 329 328 328 328 328 328 329 330 330 331 331 331 330 330 329 327 326 325 323 322 321 319 317 316 315 313 310 307
317 317 317 318 318 319 320 322 323 324 325 326 326 326 327 327 328 328 329 330 331 332 332 332 333 334 334 334 335 337 339 341 343 345 345 341 338 337 339 339 339 338 337 336 335 334 333 332 331 330 330 330 330 330 330 330 330 330 330 330 330 330 331 331 332 332 333 333 333 333 332 332 331 330 329 328 328 326 325 323 321 319 318 316 313 310
318 317 318 318 319 320 321 323 324 325 326 326 326 327 327 328 328 329 330 331 332 332 333 333 334 335 336 336 336 337 339 341 343 345 345 341 338 337 338 339 340 339 338 337 336 335 334 333 332 332 331 331 331 331 331 332 331 331 331 332 332 333 333 334 334 335 335 335 335 335 334 334 333 333 332 332 331 331 329 327 325 323 322 320 317 313
317 318 318 319 320 321 323 324 325 325 326 326 326 327 327 328 329 329 330 331 333 334 334 335 336 336 337 337 338 338 339 341 343 344 345 342 339 337 338 340 341 340 339 338 337 336 335 334 333 333 333 333 333 333 333 333 333 333 334 334 335 336 336 336 337 336 336 336 336 336 335 335 335 334 334 334 334 334 333 331 329 328 326 324 320 316
317 318 318 319 321 322 323 324 325 325 325 326 326 327 327 328 329 330 331 332 333 334 335 336 337 337 338 338 338 339 339 341 342 344 344 342 340 338 339 341 341 341 340 339 338 337 336 335 335 335 335 335 334 334 334 335 335 336 336 337 338 338 338 338 337 337 337 336 336 336 336 335 335 335 335 336 336 336 336 335 333 332 330 327 324 319
318 318 319 320 322 323 324 324 325 325 325 326 326 327 327 328 329 330 331 333 334 335 336 337 338 338 338 338 338 339 339 340 342 343 344 343 341 340 340 341 342 342 341 340 339 338 337 337 336 336 336 336 335 336 336 337 337 338 339 339 340 339 339 338 338 337 336 336 336 335 336 336 336 336 336 336 337 338 338 337 336 335 333 330 326 322
318 319 320 321 323 324 324 324 325 325 325 326 326 326 327 328 329 330 332 333 334 336 337 338 339 339 339 339 339 339 339 340 341 343 344 344 343 341 341 341 342 342 341 340 340 339 339 338 338 337 337 337 337 337 338 339 340 340 341 341 340 340 339 338 337 336 336 335 335 335 335 336 336 336 336 337 337 338 338 338 337 336 335 332 329 324
319 320 321 322 323 324 324 325 325 325 325 326 326 327 327 329 330 331 332 333 335 337 338 340 340 340 340 339 339 339 340 341 342 343 344 344 343 342 341 341 341 342 341 341 341 340 340 339 339 338 338 338 338 339 340 341 342 342 342 341 340 339 338 337 336 335 335 335 335 335 336 336 336 336 336 336 337 338 338 338 338 337 336 334 330 326
319 320 321 322 323 324 324 325 325 325 325 326 326 327 328 330 331 332 333 334 336 337 339 340 341 340 340 340 339 339 340 341 342 344 344 345 343 342 341 341 341 342 342 342 342 341 341 340 340 339 339 339 340 341 342 343 343 343 342 341 340 339 338 337 336 335 335 335 335 335 336 336 336 336 336 336 336 337 338 338 338 337 336 334 331 327
320 321 322 322 323 324 324 325 325 325 325 326 327 328 329 330 331 332 334 335 336 338 339 340 341 341 341 340 340 340 341 342 343 344 344 344 343 342 341 341 341 342 342 343 342 342 342 341 341 340 340 341 342 343 344 344 343 343 341 340 339 338 337 336 336 335 335 335 335 335 336 336 336 336 335 335 336 336 337 337 337 337 336 334 331 327
320 321 322 322 323 324 324 324 325 325 325 326 327 329 330 331 332 333 334 335 337 338 339 340 341 341 341 341 341 341 341 343 343 344 344 344 343 342 342 342 342 342 343 343 343 343 342 342 342 342 342 343 344 344 344 344 343 342 341 340 339 338 337 336 336 335 335 335 335 335 335 336 336 335 335 335 335 336 336 336 336 336 335 333 331 327
320 321 322 322 323 323 324 324 324 325 325 327 328 329 331 332 333 334 335 336 338 339 339 340 341 341 342 342 342 342 342 343 343 344 344 344 344 343 342 342 342 342 342 343 343 343 343 343 343 343 344 344 345 345 344 344 343 341 340 339 339 338 337 337 336 335 335 335 335 335 335 336 336 336 335 335 335 335 335 335 335 335 335 333 330 327
320 321 322 322 322 323 323 324 324 325 326 328 329 330 331 332 334 335 336 337 338 339 339 340 340 341 342 343 343 343 342 343 343 344 345 345 344 343 342 342 342 342 342 343 344 344 344 344 344 345 345 345 345 345 344 343 342 341 340 340 339 338 338 337 336 335 335 335 335 335 336 336 336 336 336 336 335 334 334 334 334 334 334 332 330 327
320 321 321 321 322 322 323 324 325 326 328 329 330 331 332 333 335 336 337 338 339 339 340 340 341 342 343 344 344 344 343 343 344 345 346 345 345 343 342 341 341 341 342 343 344 345 345 346 346 346 346 345 345 344 343 343 342 341 340 340 339 339 338 337 336 336 335 335 335 336 336 337 337 337 337 336 335 334 334 333 333 333 333 332 329 327
320 320 320 321 321 322 323 324 326 328 329 331 332 332 333 334 335 336 337 338 339 340 340 341 341 342 343 345 345 344 344 344 344 345 345 345 344 343 342 341 341 341 342 342 343 345 346 347 347 346 345 345 344 344 343 343 342 341 341 340 340 339 338 337 337 336 336 336 336 336 337 338 338 338 338 337 336 334 333 333 332 332 332 331 329 327
319 320 320 320 321 322 323 325 327 329 331 332 332 333 333 334 335 337 338 338 340 340 341 341 342 343 344 344 345 345 344 344 345 345 345 344 344 343 342 341 341 341 342 342 343 344 346 347 347 347 346 345 344 344 343 343 343 342 342 341 340 339 338 338 338 338 337 337 337 338 339 340 340 340 339 337 336 335 334 332 332 332 331 331 330 329
319 319 319 319 320 322 324 327 329 331 332 333 333 333 333 334 335 337 338 339 340 341 342 342 343 344 344 345 346 346 345 345 345 345 345 344 343 343 342 342 341 341 342 342 343 344 345 346 347 347 347 346 345 344 344 344 344 343 343 342 341 340 339 339 339 339 339 338 338 339 341 342 342 342 340 338 337 335 334 332 331 331 331 331 332 332
318 318 318 319 320 323 326 329 331 332 333 333 332 332 333 334 336 337 338 340 340 341 342 343 344 345 345 346 347 347 346 345 344 344 344 344 343 343 342 342 341 342 342 343 344 345 345 346 347 347 347 347 346 346 345 345 345 344 344 343 342 341 341 341 341 340 340 339 340 342 344 345 345 343 342 340 338 337 335 333 332 332 332 333 335 336
317 317 317 318 321 324 328 331 332 333 333 332 332 332 333 335 336 338 339 340 341 342 343 343 344 345 346 347 347 347 346 345 344 344 343 343 343 342 342 341 342 342 343 343 344 345 346 347 348 348 348 348 348 348 347 347 346 345 345 344 343 342 342 342 342 342 341 341 343 345 347 348 347 346 344 342 341 340 338 335 334 333 334 336 339 341
316 316 317 319 322 326 329 332 333 333 332 332 332 333 334 336 337 339 340 341 342 343 343 344 344 345 346 346 347 347 346 345 344 343 343 342 342 342 342 342 342 342 343 344 345 346 347 348 349 349 349 349 349 349 349 349 348 347 346 345 344 344 344 343 344 344 344 344 346 348 350 351 350 349 347 346 344 343 341 339 337 336 336 339 342 345
315 315 317 320 324 328 331 332 333 332 332 332 333 334 335 337 339 340 341 342 343 344 344 344 344 345 345 346 346 346 346 345 344 342 342 342 342 342 342 342 343 343 344 344 345 347 348 349 350 350 350 351 351 351 351 351 350 348 347 346 346 345 345 345 346 346 347 348 349 351 352 353 353 352 351 350 349 348 345 343 340 339 340 342 345 348
314 315 317 321 326 329 331 332 332 332 332 333 334 335 336 338 340 341 342 343 344 344 344 344 345 345 345 346 346 346 345 344 343 342 342 342 342 342 343 343 344 344 345 345 346 348 349 351 351 352 352 352 353 353 353 352 352 350 349 348 347 347 347 347 348 350 351 352 353 354 355 356 356 356 355 354 353 351 349 346 344 343 343 345 348 351
313 314 317 322 326 329 330 330 331 331 332 333 334 336 337 339 340 342 342 343 344 345 345 345 345 345 345 345 345 345 344 344 343 342 342 342 342 343 344 344 345 345 346 347 348 349 350 352 353 353 353 354 354 354 354 354 353 352 351 350 349 349 349 350 352 353 355 356 356 356 356 357 358 359 359 358 356 354 351 349 347 347 348 349 351 355
310 312 316 320 323 325 327 328 330 331 332 334 335 337 338 340 341 342 343 343 344 345 346 346 346 346 345 345 345 344 344 343 343 342 342 343 343 344 344 345 346 346 347 348 349 350 352 353 354 355 355 355 355 356 356 355 354 353 352 352 352 352 353 354 356 357 358 358 358 358 358 359 0 1 2 1 359 356 354 352 352 352 353 354 356 359
307 310 313 316 318 321 324 327 330 332 333 335 336 337 339 340 341 342 343 343 344 345 347 347 347 346 346 345 344 343 343 343 343 343 343 343 344 345 345 346 347 347 348 350 351 352 353 354 355 355 356 356 356 356 356 355 354 353 353 354 354 355 357 358 359 0 0 0 360 360 360 1 2 3 4 2 1 359 357 356 356 357 359 0 3 8
304 307 309 311 314 317 322 327 331 333 334 335 336 337 338 340 341 342 343 343 345 346 347 348 348 347 346 345 344 343 343 342 343 343 344 345 345 346 347 347 348 349 350 351 352 354 355 355 355 356 356 357 357 357 356 355 354 353 353 355 357 359 360 1 2 2 2 2 1 2 2 3 5 6 5 3 1 360 359 360 1 3 5 9 13 19
302 304 307 309 311 316 322 327 331 334 335 335 336 337 338 339 341 342 343 344 345 346 347 348 348 347 346 345 344 343 342 342 343 344 345 346 347 348 348 349 349 350 351 352 353 355 356 356 356 356 356 357 358 358 357 356 355 355 355 357 0 2 3 4 4 4 3 3 3 4 4 6 7 8 7 5 3 2 2 4 6 8 12 18 25 32
300 303 305 307 311 315 322 328 332 335 335 335 336 337 337 339 340 342 343 344 345 346 347 348 348 347 346 345 344 343 343 343 344 345 346 347 348 349 350 350 350 351 352 353 354 355 356 356 356 356 357 357 358 358 358 358 357 357 357 359 1 3 5 5 5 5 5 5 5 6 7 8 9 9 8 6 5 6 7 9 11 15 19 26 33 40
298 301 304 306 310 315 323 330 334 335 335 335 336 336 337 339 340 342 343 344 345 346 347 347 347 347 346 345 345 344 344 344 345 346 347 349 350 351 351 352 352 352 352 354 355 356 356 356 357 357 358 358 358 359 359 360 0 0 0 1 2 3 5 5 5 5 6 7 8 9 10 11 11 11 9 9 9 11 13 15 17 21 27 33 40 45
295 299 303 306 310 317 325 332 335 335 335 335 336 337 338 339 341 342 343 345 346 347 347 348 347 347 346 346 345 345 346 346 347 348 349 350 351 352 353 353 353 353 353 354 355 356 356 356 356 357 358 359 359 360 0 2 3 4 4 4 3 4 4 3 4 5 7 9 11 13 14 14 14 13 12 12 14 17 19 21 24 28 34 40 45 49
295 299 303 307 312 320 329 334 335 335 335 335 336 337 338 340 341 342 344 345 347 347 348 348 347 347 346 346 346 346 347 348 348 349 350 351 352 354 354 354 354 353 353 354 355 356 357 357 357 357 358 359 0 1 2 4 6 7 7 7 5 4 3 2 3 4 7 11 14 17 18 18 17 16 16 16 18 21 25 28 31 35 40 45 49 51
298 302 305 309 315 324 332 335 336 336 335 335 336 337 339 340 342 343 345 346 348 348 348 348 347 347 346 346 346 347 348 349 349 350 351 352 353 355 356 356 355 355 354 354 355 356 357 357 358 358 359 0 2 3 4 6 8 9 9 8 6 5 3 3 3 5 8 12 16 19 21 21 21 21 20 20 23 27 31 34 37 40 44 47 50 52
301 305 307 311 319 328 334 336 336 336 336 336 336 338 339 341 342 344 345 347 348 349 349 348 347 347 346 346 347 348 348 349 350 351 352 353 354 356 357 357 357 356 355 355 355 356 357 358 358 359 359 1 3 5 6 8 10 11 10 9 6 5 4 3 4 7 10 13 16 19 22 24 26 26 25 26 29 32 36 39 42 45 47 50 52 54
304 306 308 314 323 331 336 337 337 336 336 336 337 338 340 341 343 345 347 348 349 349 349 348 348 347 347 347 347 348 349 350 351 352 353 354 355 356 357 358 358 357 356 356 356 357 358 358 359 359 360 2 4 7 8 9 11 11 11 9 7 6 6 6 7 9 12 14 16 19 22 25 28 29 30 31 34 37 41 43 46 48 50 52 54 56
306 307 311 319 328 335 337 337 337 336 336 337 338 340 341 342 344 346 348 349 350 349 349 348 347 347 347 347 348 349 350 351 352 352 353 354 355 356 357 358 359 358 358 357 357 357 358 359 359 360 0 2 4 8 10 11 12 12 11 10 9 9 9 9 10 11 13 15 17 20 23 26 29 31 33 34 36 39 43 47 49 51 53 55 57 59
307 309 315 324 332 337 337 337 336 336 336 338 339 341 343 344 346 348 349 350 350 350 349 348 347 347 347 348 349 350 351 351 352 353 354 355 356 356 357 358 359 359 359 359 358 358 358 359 359 359 0 2 4 7 10 12 13 13 13 12 11 12 13 14 13 14 14 16 18 20 24 28 31 34 36 37 38 41 45 49 52 54 57 59 61 63
308 312 321 330 335 337 337 337 336 336 337 339 341 343 344 346 348 349 351 351 351 350 349 348 347 347 348 348 349 350 351 352 353 354 355 355 356 357 357 358 358 359 360 0 0 360 360 359 359 359 359 1 3 5 9 12 14 15 14 14 14 15 18 19 18 17 17 17 18 21 25 29 33 35 37 39 41 44 48 52 55 58 60 62 64 66
Height
3089 3089 3088 3087 3086 3085 3084 3083 3082 3080 3079 3078 3077 3075 3074 3072 3070 3069 3067 3065 3063 3061 3059 3057 3055 3053 3051 3048 3046 3044 3041 3039 3036 3033 3030 3027 3024 3021 3018 3015 3012 3009 3005 3002 2999 2995 2993 2990 2988 2985 2983 2981 2979 2977 2975 2973 2971 2969 2966 2964 2962 2959 2957 2955 2952 2950 2948 2945 2943 2940 2938 2935 2933 2931 2928 2926 2924 2922 2919 2917 2915 2913 2910 2909 2906 2904
3088 3087 3086 3085 3084 3084 3082 3081 3080 3079 3078 3077 3075 3074 3072 3070 3069 3067 3065 3063 3061 3059 3057 3055 3053 3051 3049 3047 3044 3042 3039 3037 3034 3031 3028 3025 3022 3019 3016 3013 3009 3006 3002 2999 2996 2993 2990 2988 2985 2983 2981 2979 2977 2975 2973 2971 2969 2967 2964 2962 2959 2957 2955 2952 2950 2948 2945 2943 2940 2938 2935 2933 2930 2928 2926 2924 2921 2919 2917 2914 2913 2910 2908 2906 2904 2901
3087 3086 3085 3084 3083 3082 3081 3080 3079 3078 3077 3075 3074 3073 3071 3069 3068 3066 3064 3062 3059 3057 3055 3053 3051 3049 3047 3045 3043 3040 3038 3034 3032 3029 3025 3023 3020 3017 3014 3010 3007 3003 3000 2997 2994 2990 2988 2985 2983 2981 2979 2977 2975 2974 2971 2969 2967 2965 2962 2960 2958 2955 2953 2950 2948 2945 2943 2940 2938 2935 2933 2930 2928 2925 2923 2921 2919 2916 2914 2912 2910 2908 2905 2903 2901 2899
3086 3085 3084 3083 3082 3081 3080 3079 3078 3076 3075 3074 3073 3071 3069 3068 3066 3064 3062 3060 3058 3056 3054 3052 3050 3048 3046 3044 3041 3039 3036 3033 3029 3026 3024 3020 3018 3014 3011 3008 3004 3001 2998 2994 2991 2989 2986 2984 2981 2979 2978 2975 2974 2972 2969 2967 2965 2963 2960 2958 2955 2953 2950 2948 2945 2943 2940 2938 2935 2933 2930 2928 2925 2923 2920 2918 2916 2914 2912 2909 2907 2905 2903 2900 2898 2896
3085 3084 3083 3082 3081 3080 3079 3078 3076 3075 3074 3072 3071 3069 3068 3066 3065 3063 3061 3059 3057 3055 3053 3050 3048 3046 3044 3042 3039 3037 3034 3031 3028 3024 3021 3019 3016 3013 3009 3006 3002 2999 2995 2992 2989 2987 2984 2982 2980 2978 2976 2974 2972 2970 2968 2965 2963 2961 2958 2956 2953 2950 2948 2945 2943 2940 2937 2935 2932 2930 2927 2925 2922 2920 2918 2915 2913 2911 2909 2907 2904 2902 2900 2898 2895 2893
3084 3083 3082 3081 3080 3079 3078 3076 3075 3074 3073 3071 3069 3068 3066 3065 3063 3061 3060 3058 3056 3054 3052 3049 3047 3044 3042 3040 3038 3035 3032 3029 3026 3023 3019 3017 3014 3010 3007 3004 3000 2997 2994 2991 2988 2985 2983 2980 2978 2976 2974 2972 2970 2968 2966 2963 2961 2959 2956 2954 2951 2948 2945 2943 2940 2937 2935 2932 2929 2927 2924 2922 2919 2917 2914 2912 2910 2908 2906 2904 2902 2899 2897 2895 2893 2891
3082 3081 3080 3079 3079 3078 3076 3075 3074 3073 3071 3070 3069 3067 3065 3064 3062 3060 3058 3057 3055 3053 3051 3049 3046 3043 3041 3038 3036 3033 3030 3027 3024 3021 3018 3015 3012 3009 3005 3002 2999 2995 2992 2989 2986 2984 2981 2979 2977 2975 2973 2970 2968 2966 2964 2961 2959 2956 2954 2951 2949 2946 2943 2940 2938 2935 2932 2929 2927 2924 2921 2919 2916 2914 2912 2909 2907 2905 2903 2901 2899 2897 2894 2892 2890 2889
3081 3080 3079 3078 3077 3076 3075 3074 3072 3071 3070 3069 3067 3066 3064 3063 3061 3059 3057 3055 3053 3052 3050 3048 3045 3042 3039 3037 3034 3032 3029 3026 3023 3019 3016 3013 3010 3007 3004 3000 2997 2994 2991 2988 2985 2983 2980 2978 2976 2974 2971 2969 2967 2964 2962 2960 2957 2954 2952 2949 2946 2943 2940 2938 2935 2932 2929 2926 2924 2921 2919 2916 2914 2911 2909 2906 2904 2902 2900 2898 2896 2894 2892 2890 2888 2886
3080 3079 3078 3077 3076 3075 3074 3072 3071 3069 3068 3067 3065 3064 3063 3061 3060 3058 3056 3054 3052 3050 3048 3046 3044 3041 3039 3036 3034 3031 3028 3024 3021 3018 3014 3010 3007 3004 3001 2999 2995 2992 2989 2987 2984 2982 2979 2977 2975 2972 2970 2968 2965 2963 2960 2958 2955 2952 2949 2946 2944 2940 2938 2935 2932 2929 2926 2924 2921 2918 2915 2913 2910 2908 2906 2904 2901 2899 2897 2895 2893 2891 2889 2887 2885 2884
3079 3078 3077 3076 3075 3074 3072 3071 3069 3068 3067 3065 3063 3062 3060 3059 3058 3057 3055 3054 3051 3049 3047 3044 3042 3039 3037 3035 3033 3030 3027 3024 3020 3016 3012 3009 3005 3002 2999 2996 2994 2991 2988 2986 2983 2981 2978 2976 2974 2971 2969 2966 2964 2961 2959 2956 2953 2950 2947 2944 2941 2938 2935 2932 2929 2926 2923 2920 2918 2915 2913 2910 2908 2905 2903 2900 2898 2896 2894 2892 2890 2888 2886 2884 2883 2881
3078 3077 3076 3074 3073 3072 3071 3069 3068 3067 3065 3063 3061 3060 3058 3057 3056 3054 3053 3052 3050 3048 3046 3043 3040 3037 3035 3033 3031 3029 3026 3023 3019 3014 3010 3007 3004 3001 2998 2995 2993 2990 2987 2985 2982 2980 2977 2975 2973 2970 2968 2965 2962 2960 2957 2954 2951 2948 2944 2941 2938 2935 2932 2929 2926 2923 2920 2917 2915 2912 2909 2907 2904 2902 2900 2897 2895 2893 2891 2889 2887 2885 2883 2882 2880 2878
3077 3076 3074 3073 3072 3071 3069 3068 3066 3065 3064 3062 3060 3058 3057 3055 3054 3052 3051 3049 3048 3046 3044 3041 3039 3035 3032 3030 3029 3027 3024 3021 3018 3013 3009 3005 3002 2999 2997 2994 2992 2989 2987 2984 2982 2979 2976 2974 2971 2969 2966 2963 2960 2958 2954 2951 2948 2945 2942 2939 2935 2932 2929 2926 2923 2920 2917 2914 2912 2909 2907 2904 2902 2899 2897 2894 2892 2890 2888 2886 2884 2882 2880 2879 2877 2876
3076 3074 3073 3072 3071 3069 3068 3066 3065 3063 3062 3060 3059 3057 3055 3054 3052 3050 3049 3047 3045 3043 3041 3039 3037 3034 3030 3028 3026 3024 3022 3019 3015 3011 3007 3003 3000 2997 2995 2993 2991 2988 2985 2983 2980 2978 2975 2972 2970 2967 2964 2961 2959 2955 2952 2949 2946 2943 2939 2936 2933 2929 2926 2923 2920 2917 2914 2912 2909 2907 2904 2901 2899 2896 2894 2891 2889 2887 2885 2883 2881 2879 2878 2876 2875 2873
3074 3073 3072 3071 3069 3068 3067 3065 3064 3062 3060 3059 3057 3055 3054 3052 3050 3049 3047 3045 3043 3041 3039 3037 3035 3032 3029 3025 3023 3020 3019 3016 3013 3009 3005 3001 2998 2996 2994 2992 2990 2987 2984 2982 2979 2976 2974 2971 2968 2965 2963 2959 2956 2953 2950 2947 2943 2940 2937 2933 2930 2927 2924 2921 2918 2915 2912 2909 2907 2904 2901 2899 2896 2893 2891 2889 2886 2884 2882 2880 2878 2877 2875 2874 2872 2871
3073 3072 3071 3069 3068 3067 3065 3064 3062 3060 3059 3057 3055 3054 3052 3050 3049 3047 3045 3044 3041 3039 3038 3036 3034 3031 3027 3024 3020 3018 3015 3013 3010 3007 3004 2999 2996 2994 2992 2991 2989 2986 2984 2981 2978 2975 2972 2969 2967 2964 2961 2958 2954 2951 2947 2944 2941 2937 2934 2931 2927 2924 2921 2918 2915 2912 2909 2907 2904 2901 2899 2896 2893 2890 2888 2885 2883 2881 2879 2877 2876 2874 2872 2871 2869 2868
3072 3071 3069 3068 3067 3065 3064 3062 3060 3059 3057 3055 3054 3052 3050 3049 3047 3045 3044 3041 3039 3037 3035 3033 3031 3029 3026 3022 3019 3015 3013 3010 3008 3005 3002 2998 2995 2992 2991 2989 2987 2985 2982 2979 2977 2974 2971 2968 2965 2962 2959 2955 2952 2949 2945 2941 2938 2935 2931 2928 2925 2922 2919 2916 2913 2910 2907 2904 2901 2899 2896 2893 2890 2888 2885 2883 2881 2879 2877 2875 2873 2871 2870 2868 2867 2865
3071 3069 3068 3067 3065 3064 3062 3060 3059 3057 3056 3054 3052 3051 3049 3047 3045 3043 3041 3039 3037 3035 3033 3030 3028 3025 3022 3019 3016 3013 3010 3007 3005 3003 3000 2997 2994 2991 2989 2988 2986 2983 2981 2978 2975 2972 2969 2966 2963 2959 2956 2953 2949 2946 2942 2939 2935 2932 2929 2926 2922 2919 2916 2913 2910 2907 2904 2901 2899 2896 2893 2890 2888 2885 2883 2880 2878 2876 2874 2873 2871 2869 2867 2866 2864 2863
3069 3068 3067 3065 3064 3063 3061 3059 3057 3056 3054 3053 3051 3049 3048 3046 3044 3042 3040 3038 3035 3033 3030 3028 3025 3022 3019 3016 3013 3010 3007 3005 3003 3000 2999 2996 2993 2990 2988 2986 2984 2982 2979 2976 2973 2970 2967 2964 2960 2957 2953 2950 2946 2943 2939 2936 2933 2930 2926 2923 2920 2916 2913 2910 2907 2904 2902 2899 2896 2893 2891 2888 2885 2883 2880 2878 2876 2874 2872 2870 2869 2867 2865 2864 2862 2861
3068 3067 3065 3064 3063 3061 3059 3058 3056 3054 3053 3052 3050 3049 3047 3045 3043 3040 3038 3036 3034 3031 3029 3026 3023 3020 3017 3014 3010 3008 3005 3003 3000 2999 2997 2994 2991 2988 2985 2984 2982 2980 2977 2974 2971 2968 2964 2961 2958 2954 2951 2947 2944 2940 2937 2934 2930 2927 2923 2920 2917 2914 2910 2908 2905 2902 2899 2896 2894 2891 2888 2886 2883 2880 2878 2876 2874 2872 2870 2868 2866 2865 2863 2862 2860 2859
3067 3065 3064 3062 3061 3059 3058 3056 3054 3053 3052 3050 3049 3047 3045 3044 3042 3039 3037 3035 3032 3030 3027 3024 3021 3018 3015 3012 3009 3006 3003 3001 2999 2997 2995 2992 2989 2986 2983 2981 2979 2977 2975 2972 2969 2966 2962 2958 2955 2951 2948 2944 2941 2937 2934 2930 2927 2924 2920 2917 2914 2910 2908 2905 2902 2899 2897 2894 2891 2889 2886 2884 2881 2879 2876 2874 2872 2870 2868 2866 2865 2863 2862 2860 2859 2857
3065 3064 3063 3061 3059 3058 3056 3054 3053 3052 3050 3049 3047 3046 3044 3042 3040 3038 3036 3034 3031 3029 3026 3023 3020 3016 3013 3010 3007 3004 3001 2999 2996 2994 2992 2989 2987 2984 2981 2979 2977 2975 2973 2969 2967 2963 2960 2956 2952 2949 2945 2942 2938 2934 2931 2927 2924 2920 2917 2914 2911 2908 2905 2903 2900 2898 2895 2892 2889 2887 2884 2881 2879 2877 2874 2872 2870 2868 2866 2865 2863 2862 2860 2859 2857 2856
3064 3063 3061 3059 3058 3056 3055 3053 3052 3050 3049 3048 3046 3044 3042 3040 3039 3036 3034 3032 3030 3027 3024 3022 3019 3015 3012 3008 3005 3002 2999 2996 2994 2991 2989 2987 2984 2982 2979 2977 2975 2973 2970 2967 2964 2961 2957 2954 2950 2946 2943 2939 2935 2932 2928 2924 2921 2918 2914 2912 2909 2906 2904 2901 2898 2895 2893 2890 2887 2884 2882 2879 2877 2875 2873 2870 2869 2867 2865 2863 2862 2860 2859 2857 2856 2854
3063 3061 3060 3058 3057 3055 3054 3052 3050 3049 3047 3046 3044 3043 3040 3039 3036 3034 3032 3030 3028 3025 3023 3020 3017 3014 3010 3007 3003 3000 2997 2994 2991 2989 2987 2985 2982 2980 2977 2975 2973 2971 2968 2965 2962 2958 2955 2951 2948 2944 2940 2936 2933 2929 2925 2922 2919 2915 2913 2910 2907 2905 2902 2899 2896 2894 2891 2888 2885 2883 2880 2878 2875 2873 2871 2869 2867 2865 2864 2862 2860 2859 2858 2856 2855 2853
3061 3060 3058 3057 3055 3054 3052 3051 3049 3048 3046 3045 3043 3041 3039 3037 3035 3033 3030 3028 3025 3023 3021 3018 3015 3012 3009 3005 3002 2999 2995 2993 2990 2987 2985 2983 2981 2978 2975 2973 2970 2968 2965 2963 2959 2956 2953 2949 2946 2942 2938 2934 2930 2927 2923 2920 2917 2914 2911 2909 2906 2903 2900 2898 2894 2891 2889 2886 2883 2880 2878 2876 2874 2872 2869 2868 2866 2864 2862 2861 2859 2858 2856 2855 2854 2852
3060 3059 3057 3055 3054 3052 3051 3049 3048 3047 3045 3044 3042 3040 3038 3035 3033 3031 3028 3026 3023 3021 3019 3016 3014 3011 3008 3004 3001 2997 2994 2992 2989 2986 2984 2981 2979 2976 2974 2971 2968 2965 2963 2960 2958 2954 2951 2948 2944 2940 2936 2931 2928 2924 2922 2919 2916 2913 2910 2907 2904 2902 2899 2896 2893 2889 2887 2884 2881 2879 2877 2874 2872 2870 2868 2866 2864 2863 2861 2859 2858 2857 2855 2854 2853 2851
3059 3057 3055 3054 3053 3051 3050 3048 3047 3045 3044 3042 3040 3039 3036 3034 3032 3030 3027 3024 3022 3019 3016 3014 3012 3009 3006 3003 2999 2996 2993 2990 2988 2985 2983 2980 2977 2974 2971 2969 2966 2963 2960 2958 2955 2952 2949 2945 2941 2938 2934 2930 2926 2923 2920 2918 2915 2912 2909 2906 2903 2900 2897 2894 2891 2888 2885 2882 2880 2877 2875 2873 2871 2869 2867 2865 2863 2861 2860 2858 2857 2856 2854 2853 2851 2850
3057 3056 3054 3053 3051 3050 3049 3047 3046 3044 3042 3040 3039 3037 3035 3033 3031 3028 3026 3023 3020 3017 3014 3012 3009 3007 3004 3001 2998 2994 2991 2989 2986 2984 2981 2978 2975 2972 2969 2966 2964 2961 2958 2956 2954 2951 2947 2943 2939 2935 2932 2929 2926 2923 2919 2917 2914 2910 2907 2904 2901 2898 2895 2892 2889 2886 2883 2881 2878 2876 2874 2872 2870 2868 2866 2864 2862 2860 2859 2857 2856 2854 2853 2852 2850 2849
3056 3054 3053 3052 3050 3049 3047 3046 3044 3043 3041 3039 3037 3035 3033 3031 3029 3026 3024 3021 3019 3016 3013 3010 3007 3004 3001 2999 2996 2993 2989 2986 2984 2981 2979 2977 2974 2971 2968 2965 2962 2959 2956 2954 2952 2949 2946 2942 2937 2933 2930 2927 2924 2921 2919 2915 2912 2909 2906 2903 2899 2896 2893 2890 2887 2884 2882 2879 2877 2875 2873 2871 2869 2867 2864 2863 2861 2859 2858 2856 2855 2853 2852 2850 2849 2848
3054 3053 3052 3050 3049 3047 3046 3044 3043 3041 3039 3037 3035 3033 3031 3029 3027 3025 3022 3019 3017 3014 3011 3008 3005 3002 2999 2997 2995 2992 2989 2985 2983 2980 2978 2975 2973 2970 2967 2964 2960 2957 2954 2951 2949 2948 2946 2942 2938 2933 2929 2926 2923 2920 2917 2914 2911 2908 2904 2901 2898 2895 2892 2889 2886 2883 2881 2878 2876 2874 2872 2869 2868 2866 2864 2862 2860 2858 2856 2855 2854 2852 2851 2849 2848 2847
3053 3052 3050 3049 3048 3046 3044 3043 3041 3039 3038 3036 3034 3032 3030 3028 3026 3023 3021 3018 3015 3012 3009 3006 3003 3000 2997 2995 2992 2990 2987 2984 2982 2979 2977 2974 2971 2968 2965 2961 2958 2955 2952 2948 2945 2944 2943 2940 2937 2934 2929 2925 2922 2919 2916 2913 2909 2906 2903 2899 2896 2893 2890 2887 2885 2882 2879 2877 2875 2873 2871 2869 2867 2864 2863 2860 2859 2857 2855 2854 2852 2851 2849 2848 2847 2846
3052 3051 3049 3048 3046 3045 3043 3041 3040 3038 3036 3034 3033 3031 3029 3027 3024 3022 3019 3016 3014 3010 3008 3004 3002 2999 2995 2993 2990 2987 2985 2982 2980 2978 2975 2973 2969 2967 2964 2960 2956 2953 2950 2947 2944 2940 2938 2936 2935 2932 2929 2924 2920 2917 2914 2911 2908 2904 2901 2898 2895 2892 2889 2886 2884 2881 2879 2876 2874 2872 2870 2868 2866 2864 2862 2859 2858 2856 2854 2853 2851 2850 2849 2847 2846 2845
3052 3050 3049 3047 3045 3044 3042 3040 3039 3037 3035 3034 3032 3030 3028 3026 3023 3021 3018 3015 3012 3009 3006 3003 3000 2998 2995 2992 2989 2986 2984 2981 2978 2976 2974 2971 2968 2965 2962 2959 2956 2952 2949 2946 2943 2940 2937 2934 2932 2929 2927 2924 2920 2916 2912 2909 2906 2903 2899 2896 2893 2891 2888 2886 2883 2881 2878 2875 2873 2871 2869 2867 2865 2863 2861 2859 2857 2855 2853 2852 2850 2849 2847 2846 2845 2844
3050 3049 3048 3046 3044 3043 3041 3040 3038 3037 3035 3033 3031 3029 3027 3025 3022 3019 3016 3013 3010 3007 3004 3001 2999 2996 2994 2992 2989 2986 2983 2980 2978 2975 2972 2969 2967 2964 2961 2958 2955 2952 2949 2946 2943 2939 2936 2933 2930 2927 2924 2922 2919 2915 2911 2907 2904 2901 2898 2895 2892 2889 2887 2885 2883 2880 2877 2875 2872 2870 2868 2866 2864 2862 2860 2858 2856 2854 2853 2851 2849 2848 2846 2845 2844 2844
3049 3048 3046 3045 3043 3042 3040 3039 3038 3036 3034 3032 3030 3028 3026 3023 3020 3018 3015 3012 3009 3006 3003 3000 2997 2995 2993 2990 2988 2986 2983 2980 2977 2974 2971 2969 2966 2963 2960 2957 2954 2951 2948 2945 2942 2939 2935 2932 2929 2926 2922 2919 2916 2914 2910 2907 2903 2899 2897 2894 2892 2889 2886 2884 2882 2879 2877 2874 2871 2869 2867 2865 2863 2861 2859 2857 2855 2854 2852 2850 2849 2847 2846 2844 2844 2843
3048 3047 3045 3044 3042 3041 3039 3038 3037 3035 3033 3031 3029 3027 3024 3022 3019 3016 3013 3010 3008 3004 3002 2999 2996 2994 2991 2989 2987 2985 2982 2980 2977 2974 2971 2968 2965 2962 2959 2956 2953 2949 2946 2943 2941 2938 2935 2932 2928 2925 2922 2918 2915 2912 2909 2906 2903 2899 2896 2894 2891 2889 2886 2884 2881 2879 2876 2873 2870 2868 2866 2864 2862 2860 2859 2857 2855 2853 2852 2850 2848 2847 2845 2844 2843 2842
3047 3045 3044 3043 3041 3039 3038 3037 3035 3034 3032 3030 3028 3026 3023 3021 3018 3015 3012 3009 3007 3004 3001 2998 2995 2993 2990 2988 2986 2984 2981 2979 2976 2973 2970 2967 2964 2961 2958 2955 2952 2948 2945 2941 2938 2936 2933 2930 2927 2924 2921 2918 2914 2911 2908 2905 2902 2899 2896 2894 2891 2888 2886 2883 2881 2878 2875 2872 2869 2867 2865 2863 2862 2860 2858 2856 2855 2853 2851 2850 2848 2847 2845 2844 2843 2842
3045 3044 3043 3041 3040 3038 3037 3036 3034 3033 3031 3029 3027 3025 3022 3019 3017 3014 3012 3009 3006 3004 3001 2998 2995 2992 2990 2987 2985 2983 2980 2978 2975 2972 2969 2966 2963 2960 2957 2954 2950 2947 2944 2940 2937 2934 2931 2929 2925 2922 2919 2916 2914 2911 2908 2905 2902 2899 2896 2893 2891 2888 2885 2883 2880 2877 2874 2872 2869 2867 2865 2863 2861 2860 2858 2857 2855 2853 2852 2850 2849 2847 2846 2844 2843 2842
3044 3042 3041 3040 3038 3037 3036 3034 3033 3032 3030 3029 3026 3024 3021 3019 3016 3013 3011 3008 3006 3003 3000 2998 2995 2992 2989 2987 2984 2982 2979 2977 2974 2971 2969 2965 2963 2959 2956 2953 2949 2946 2943 2939 2936 2933 2930 2927 2924 2921 2918 2915 2912 2909 2907 2905 2902 2899 2896 2894 2891 2888 2885 2882 2879 2877 2874 2872 2869 2867 2865 2863 2861 2860 2858 2857 2855 2854 2852 2850 2849 2848 2846 2845 2844 2842
3042 3041 3039 3038 3037 3036 3035 3034 3032 3031 3029 3027 3025 3023 3020 3018 3015 3013 3010 3008 3005 3003 3000 2997 2994 2992 2989 2986 2984 2981 2979 2976 2974 2971 2968 2965 2962 2959 2955 2952 2948 2944 2941 2938 2935 2932 2929 2926 2923 2921 2918 2915 2912 2909 2906 2904 2901 2899 2896 2893 2890 2888 2885 2882 2879 2877 2874 2872 2870 2868 2865 2864 2862 2860 2858 2857 2855 2854 2852 2851 2849 2848 2847 2846 2844 2843
3040 3039 3038 3037 3036 3035 3034 3032 3031 3029 3028 3026 3024 3022 3019 3017 3014 3012 3009 3007 3004 3002 2999 2997 2994 2992 2989 2986 2984 2981 2978 2975 2973 2970 2967 2964 2961 2958 2954 2951 2947 2944 2940 2938 2934 2932 2929 2925 2922 2919 2917 2915 2912 2909 2906 2904 2901 2898 2895 2893 2889 2887 2884 2881 2879 2877 2875 2873 2870 2868 2866 2864 2862 2860 2859 2857 2855 2854 2853 2851 2850 2849 2847 2846 2845 2844
3039 3038 3037 3036 3035 3034 3033 3031 3029 3028 3026 3024 3023 3020 3019 3016 3014 3012 3009 3006 3004 3002 2999 2997 2995 2992 2989 2987 2984 2981 2978 2975 2972 2969 2967 2964 2960 2957 2953 2950 2946 2943 2940 2937 2934 2931 2929 2925 2922 2919 2916 2914 2911 2909 2906 2903 2900 2897 2894 2892 2889 2887 2884 2882 2880 2878 2875 2873 2871 2869 2867 2865 2863 2861 2859 2857 2856 2854 2853 2851 2850 2849 2848 2846 2845 2845
3037 3036 3036 3035 3034 3033 3031 3030 3028 3027 3025 3023 3021 3019 3017 3015 3013 3010 3008 3006 3003 3001 2999 2997 2995 2993 2990 2987 2984 2981 2978 2975 2972 2969 2966 2963 2959 2956 2952 2949 2946 2943 2939 2937 2934 2931 2928 2926 2923 2920 2917 2914 2911 2909 2906 2903 2900 2897 2894 2891 2889 2887 2885 2883 2881 2879 2877 2874 2872 2870 2868 2865 2864 2862 2860 2858 2856 2855 2853 2852 2850 2849 2848 2847 2846 2846
3036 3035 3034 3034 3033 3032 3030 3029 3027 3026 3024 3022 3020 3018 3016 3014 3011 3009 3007 3004 3002 3000 2998 2996 2994 2991 2989 2986 2984 2980 2977 2974 2971 2968 2965 2962 2959 2955 2952 2948 2945 2942 2939 2937 2934 2930 2927 2925 2922 2920 2917 2914 2911 2909 2906 2903 2899 2896 2894 2891 2888 2886 2884 2883 2881 2880 2878 2875 2873 2871 2869 2866 2864 2863 2861 2859 2857 2856 2854 2853 2851 2850 2849 2849 2848 2847
3034 3034 3034 3033 3032 3030 3029 3028 3026 3025 3023 3021 3019 3017 3014 3012 3010 3008 3005 3003 3001 2999 2996 2994 2992 2990 2988 2985 2983 2980 2977 2974 2970 2967 2964 2961 2958 2954 2951 2948 2944 2941 2939 2936 2934 2931 2928 2924 2921 2919 2916 2914 2911 2908 2905 2902 2899 2896 2894 2891 2889 2887 2885 2883 2882 2880 2879 2876 2874 2872 2870 2868 2866 2864 2862 2860 2858 2857 2855 2854 2853 2852 2851 2850 2849 2849
3033 3033 3032 3031 3030 3029 3028 3027 3025 3024 3022 3020 3018 3016 3014 3011 3009 3006 3004 3002 2999 2997 2995 2993 2990 2988 2985 2983 2981 2979 2976 2973 2970 2967 2964 2960 2957 2954 2951 2947 2944 2941 2938 2935 2933 2931 2928 2925 2922 2919 2916 2913 2910 2908 2905 2902 2899 2897 2894 2892 2890 2888 2886 2884 2882 2881 2879 2877 2875 2873 2871 2869 2867 2865 2863 2861 2859 2858 2856 2855 2854 2853 2852 2851 2851 2850
3032 3032 3031 3030 3029 3028 3027 3026 3024 3023 3021 3019 3017 3014 3012 3010 3008 3005 3003 3001 2999 2996 2994 2991 2989 2986 2984 2981 2979 2977 2974 2972 2969 2966 2963 2960 2957 2954 2950 2947 2944 2940 2937 2934 2932 2930 2928 2925 2922 2919 2916 2913 2910 2907 2904 2902 2900 2898 2895 2894 2891 2889 2887 2885 2883 2881 2879 2877 2875 2874 2872 2870 2868 2866 2864 2862 2860 2859 2858 2857 2856 2855 2854 2853 2853 2852
3031 3031 3030 3029 3028 3027 3026 3025 3023 3022 3020 3018 3016 3014 3011 3009 3007 3004 3002 3000 2998 2995 2993 2990 2988 2985 2983 2980 2978 2975 2973 2970 2968 2965 2962 2959 2956 2953 2950 2947 2944 2940 2937 2934 2932 2929 2926 2924 2921 2918 2915 2913 2910 2907 2904 2902 2900 2898 2896 2894 2893 2890 2888 2886 2884 2882 2880 2878 2876 2874 2873 2871 2869 2867 2865 2863 2861 2860 2859 2858 2857 2857 2856 2855 2854 2854
3031 3030 3029 3028 3027 3026 3025 3024 3022 3021 3019 3017 3015 3012 3010 3008 3006 3004 3001 2999 2997 2994 2992 2989 2987 2984 2982 2979 2977 2974 2972 2969 2966 2964 2961 2958 2955 2953 2950 2947 2944 2940 2936 2934 2931 2929 2926 2924 2921 2918 2915 2912 2909 2907 2905 2903 2901 2899 2897 2895 2893 2891 2889 2887 2884 2883 2881 2879 2877 2875 2874 2872 2869 2868 2866 2864 2863 2861 2860 2860 2859 2858 2858 2857 2856 2856
3029 3029 3028 3027 3026 3025 3024 3023 3021 3020 3018 3016 3014 3012 3009 3007 3005 3003 3000 2998 2995 2993 2991 2988 2986 2984 2981 2979 2976 2974 2971 2969 2966 2963 2960 2957 2955 2952 2950 2947 2944 2941 2937 2934 2930 2927 2925 2923 2920 2918 2915 2912 2909 2907 2905 2904 2902 2900 2898 2896 2894 2892 2889 2887 2885 2884 2882 2880 2878 2876 2874 2872 2870 2869 2867 2865 2864 2863 2862 2861 2861 2860 2859 2859 2858 2858
3028 3028 3027 3026 3025 3024 3023 3022 3020 3019 3017 3015 3013 3011 3009 3006 3004 3002 2999 2997 2995 2992 2990 2988 2985 2983 2980 2978 2976 2973 2970 2968 2965 2962 2959 2957 2954 2952 2949 2947 2944 2942 2938 2934 2931 2927 2924 2921 2919 2916 2915 2913 2910 2908 2906 2904 2903 2901 2899 2897 2895 2893 2890 2888 2886 2884 2882 2880 2879 2877 2875 2873 2871 2869 2868 2867 2866 2865 2864 2863 2863 2862 2861 2861 2860 2860
3027 3027 3026 3025 3024 3023 3022 3021 3019 3018 3016 3014 3012 3010 3008 3006 3004 3001 2999 2997 2994 2992 2989 2987 2984 2982 2980 2977 2975 2972 2969 2967 2964 2961 2959 2956 2954 2951 2948 2946 2943 2941 2938 2935 2932 2928 2925 2921 2919 2916 2914 2912 2910 2909 2907 2905 2903 2901 2899 2897 2895 2893 2891 2889 2887 2885 2883 2881 2879 2877 2875 2874 2872 2871 2870 2869 2868 2867 2866 2865 2864 2864 2863 2863 2862 2862